Weather History for Akron, OH

Change the Weather History Date:

Thursday, February 28, 2013

  Actual Average (KCAK) Record (KCAK)
Temperature  
Mean Temperature 32 °F 32 °F  
Max Temperature 34 °F 40 °F 70 °F (1939)
Min Temperature 30 °F 24 °F -4 °F (1934)
Degree Days  
Heating Degree Days 33 33  
Month to date heating degree days 1008  
Since 1 July heating degree days 4544  
Cooling Degree Days 0 0  
Month to date cooling degree days 0  
Year to date cooling degree days 0  
Moisture  
Dew Point 29 °F    
Average Humidity 87    
Maximum Humidity 93    
Minimum Humidity 80    
Precipitation  
Precipitation 0.03 in 0.09 in 1.52 in (2011)
Month to date precipitation 2.31  
Year to date precipitation 4.92  
Snow  
Snow 0.00 in 0.40 in - ()
Month to date snowfall 10.5  
Since 1 July snowfall 36.5  
Snow Depth -    
Sea Level Pressure  
Sea Level Pressure 29.67 in    
Wind  
Wind Speed 10 mph (West)    
Max Wind Speed 17 mph    
Max Gust Speed 25 mph    
Visibility 6 miles    
Events Rain , Snow    
T = Trace of Precipitation, MM = Missing Value Source: NWS Daily Summary

Daily Weather History Graph

Daily Weather History Graph

Search for Another Location

Airport:

Trip Planner

Search our weather history database for the weather conditions in past years. The results will help you decide how hot, cold, wet, or windy it might be!

Date:

Astronomy

Feb. 28, 2013 Rise Set
Actual Time 7:01 AM EST 6:16 PM EST
Civil Twilight 6:33 AM EST 6:43 PM EST
Nautical Twilight 6:01 AM EST 7:15 PM EST
Astronomical Twilight 5:29 AM EST 7:47 PM EST
Moon 9:43 PM EST (2/28) 8:08 AM EST (2/28)
Length of Visible Light 12h 10m
Length of Day
11h 14m
Waning Gibbous, 91% of the Moon is Illuminated
Feb 28
Waning Gibbous
Mar 4
Last Quarter
Mar 11
New
Mar 19
First Quarter
Mar 27
Full

Hourly Weather History & Observations

Time (EST) Temp. Windchill Dew Point Humidity Pressure Visibility Wind Dir Wind Speed Gust Speed Precip Events Conditions
12:07 AM 33.8 °F 27.7 °F 30.2 °F 87% 29.59 in 5.0 mi SW 6.9 mph - 0.00 in Snow Light Snow
12:26 AM 33.8 °F 27.7 °F 30.2 °F 87% 29.59 in 6.0 mi SW 6.9 mph - 0.00 in   Overcast
12:54 AM 33.8 °F 27.7 °F 30.2 °F 87% 29.59 in 6.0 mi SW 6.9 mph - N/A Snow Light Snow
1:18 AM 33.8 °F 25.3 °F 30.2 °F 87% 29.59 in 6.0 mi SW 11.5 mph - 0.01 in Snow Light Snow
1:45 AM 33.8 °F 27.7 °F 30.2 °F 87% 29.59 in 5.0 mi West 6.9 mph - 0.01 in Snow Light Snow
1:54 AM 32.0 °F 24.8 °F 30.0 °F 92% 29.61 in 4.0 mi West 8.1 mph - 0.01 in Snow Light Snow
2:35 AM 32.0 °F 24.2 °F 28.4 °F 87% 29.59 in 10.0 mi WSW 9.2 mph - 0.01 in   Overcast
2:54 AM 32.0 °F 23.6 °F 28.9 °F 88% 29.60 in 10.0 mi WSW 10.4 mph - 0.01 in   Overcast
3:13 AM 32.0 °F 25.6 °F 28.4 °F 87% 29.57 in 10.0 mi WSW 6.9 mph - N/A   Overcast
3:31 AM 32.0 °F 24.8 °F 28.4 °F 87% 29.57 in 10.0 mi WSW 8.1 mph - N/A   Overcast
3:54 AM 32.0 °F 24.8 °F 28.0 °F 85% 29.59 in 10.0 mi WSW 8.1 mph - N/A   Overcast
4:01 AM 32.0 °F 24.2 °F 28.4 °F 87% 29.56 in 10.0 mi WSW 9.2 mph - N/A   Overcast
4:08 AM 32.0 °F 22.5 °F 26.6 °F 80% 29.56 in 10.0 mi WSW 12.7 mph - N/A   Overcast
4:54 AM 32.0 °F 23.6 °F 27.0 °F 82% 29.60 in 10.0 mi WSW 10.4 mph - N/A   Overcast
5:54 AM 32.0 °F 24.8 °F 27.0 °F 82% 29.60 in 10.0 mi WSW 8.1 mph - N/A   Overcast
6:41 AM 32.0 °F 24.2 °F 26.6 °F 80% 29.58 in 10.0 mi SW 9.2 mph - N/A   Overcast
6:54 AM 32.0 °F 23.0 °F 27.0 °F 82% 29.61 in 10.0 mi SW 11.5 mph - N/A   Overcast
7:54 AM 32.0 °F 25.6 °F 28.0 °F 85% 29.62 in 7.0 mi SW 6.9 mph - 0.00 in   Overcast
8:54 AM 32.0 °F 24.2 °F 28.9 °F 88% 29.62 in 2.5 mi SW 9.2 mph - 0.00 in Snow Light Snow
9:02 AM 32.0 °F 23.6 °F 28.4 °F 87% 29.60 in 1.2 mi WSW 10.4 mph - 0.00 in Snow Light Snow
9:14 AM 32.0 °F 24.2 °F 28.4 °F 87% 29.60 in 0.8 mi SW 9.2 mph - 0.00 in Snow Light Snow
9:27 AM 32.0 °F 24.8 °F 30.2 °F 93% 29.60 in 1.0 mi WSW 8.1 mph - 0.01 in Snow Light Snow
9:35 AM 32.0 °F 24.2 °F 30.2 °F 93% 29.60 in 1.2 mi SW 9.2 mph - 0.01 in Snow Light Snow
9:54 AM 32.0 °F 23.6 °F 30.0 °F 92% 29.62 in 1.5 mi SW 10.4 mph - 0.01 in Snow Light Snow
10:24 AM 33.8 °F 27.7 °F 30.2 °F 87% 29.60 in 1.8 mi WSW 6.9 mph - 0.00 in Snow Light Snow
10:34 AM 33.8 °F 26.4 °F 30.2 °F 87% 29.60 in 2.5 mi WSW 9.2 mph - 0.00 in Snow Light Snow
10:40 AM 33.8 °F 25.8 °F 30.2 °F 87% 29.60 in 4.0 mi WSW 10.4 mph - 0.00 in Snow Light Snow
10:54 AM 33.1 °F 25.5 °F 30.0 °F 89% 29.63 in 5.0 mi WSW 9.2 mph - 0.00 in   Overcast
11:54 AM 34.0 °F 26.6 °F 30.9 °F 89% 29.64 in 7.0 mi WSW 9.2 mph - N/A   Overcast
12:54 PM 34.0 °F 26.0 °F 30.0 °F 85% 29.64 in 10.0 mi WNW 10.4 mph - N/A   Overcast
1:54 PM 34.0 °F 25.0 °F 30.0 °F 85% 29.66 in 10.0 mi NW 12.7 mph - N/A   Overcast
2:14 PM 33.8 °F 25.3 °F 30.2 °F 87% 29.64 in 8.0 mi NNW 11.5 mph - N/A   Overcast
2:54 PM 33.1 °F 23.0 °F 30.9 °F 92% 29.68 in 9.0 mi NNW 15.0 mph 19.6 mph 0.00 in   Overcast
3:37 PM 33.8 °F 25.8 °F 30.2 °F 87% 29.67 in 10.0 mi NNW 10.4 mph 20.7 mph N/A   Overcast
3:54 PM 33.8 °F 24.3 °F 30.2 °F 87% 29.68 in 10.0 mi NNW 13.8 mph - N/A   Overcast
4:50 PM 33.8 °F 24.3 °F 30.2 °F 87% 29.70 in 2.5 mi NNW 13.8 mph 19.6 mph 0.00 in Snow Light Snow
4:54 PM 34.0 °F 26.6 °F 30.0 °F 85% 29.73 in 1.2 mi NNW 9.2 mph 19.6 mph 0.00 in Snow Light Snow
5:03 PM 33.8 °F 24.8 °F 30.2 °F 87% 29.71 in 3.0 mi NNW 12.7 mph - 0.00 in Snow Light Snow
5:54 PM 33.1 °F 22.2 °F 30.0 °F 89% 29.77 in 10.0 mi NNW 17.3 mph 24.2 mph 0.00 in   Overcast
6:54 PM 33.1 °F 22.6 °F 28.9 °F 85% 29.81 in 10.0 mi NW 16.1 mph 21.9 mph N/A   Overcast
7:54 PM 32.0 °F 21.6 °F 28.0 °F 85% 29.84 in 7.0 mi NNW 15.0 mph - N/A   Overcast
8:54 PM 30.9 °F 19.4 °F 27.0 °F 85% 29.86 in 8.0 mi NW 17.3 mph 25.3 mph N/A   Overcast
9:35 PM 30.2 °F 20.2 °F 26.6 °F 86% 29.84 in 5.0 mi NNW 12.7 mph - N/A   Overcast
9:54 PM 30.9 °F 22.2 °F 27.0 °F 85% 29.87 in 5.0 mi NNW 10.4 mph - N/A   Overcast
10:04 PM 30.2 °F 19.8 °F 26.6 °F 86% 29.85 in 4.0 mi NNW 13.8 mph - 0.00 in Rain Light Freezing Rain
10:18 PM 30.2 °F 19.3 °F 26.6 °F 86% 29.85 in 6.0 mi NNW 15.0 mph 21.9 mph 0.00 in Rain Light Freezing Rain
10:41 PM 30.2 °F 20.8 °F 26.6 °F 86% 29.85 in 8.0 mi NNW 11.5 mph 20.7 mph 0.00 in   Overcast
10:54 PM 30.2 °F 21.9 °F 26.6 °F 86% 29.85 in 6.0 mi NNW 9.2 mph - N/A   Overcast
11:54 PM 30.0 °F 20.5 °F 26.1 °F 85% 29.88 in 10.0 mi NNW 11.5 mph 20.7 mph 0.00 in   Overcast